Location: Boncourt
(49.6160°N, 3.9448°E)
Time: 20:24:03
(UTC+00:00)

Cosmos 1943 Rocket - Pass Details

Date: 09 February 2023
Orbit: 811 x 844 km, 71.0° (Epoch: 21 March)

Event Time Altitude Azimuth Distance (km) Brightness Sun altitude
Rises 20:23:17 0° 327° (NNW) 3,414 6.0 -34.2°
Reaches altitude 10° 20:25:50 10° 321° (NW) 2,473 5.2 -34.6°
Enters shadow 20:30:04 40° 282° (WNW) 1,227 3.3 -35.2°
